^^
Datos históricos de la estación: Murcia-Puente Tocinos
Diario Informe para Enero 19, 2019 Unidades:  Métrico    Inglés   Ambas
Diario Semanal Mensual Anual Configurable
  Máximo: Mínimo: Media:
Temperatura: 16.4 °C 7.7 °C 11.5 °C
Punto de rocio: 7.2 °C 0.5 °C 2.8 °C
Humedad: 74% 35% 56%
Velocidad viento: 12.2km/h 0.0km/h 6.4km/h
Racha viento: 22.2km/h - -
Viento- - SSW
Presión: 1017.0 hPa 1010.7 hPa -
Precipitación: 0.0 mm    
Historical Graphs
 
 
Tabla de datos para Enero 19, 2019
Hora Temperatura Punto de rocio Presión Viento Velocidad viento Racha viento Humedad Intensidad lluvia(por hora) Nubes
00:00 11.1 °C 5.4 °C 1016.8 hPa SW 3.2 km/h 8.0 km/h 68% 0.0 mm CLR
00:05 11.2 °C 5.7 °C 1016.7 hPa SW 3.9 km/h 7.4 km/h 69% 0.0 mm CLR
00:10 11.2 °C 5.5 °C 1016.7 hPa SW 5.0 km/h 7.4 km/h 68% 0.0 mm CLR
00:15 11.2 °C 5.7 °C 1016.7 hPa SW 5.0 km/h 6.4 km/h 69% 0.0 mm CLR
00:20 11.2 °C 5.7 °C 1016.7 hPa SW 4.7 km/h 7.4 km/h 69% 0.0 mm CLR
00:25 11.2 °C 5.7 °C 1016.7 hPa SW 4.7 km/h 7.4 km/h 69% 0.0 mm CLR
00:30 11.2 °C 5.5 °C 1016.7 hPa SW 5.0 km/h 9.3 km/h 68% 0.0 mm CLR
00:35 11.1 °C 5.4 °C 1016.7 hPa SW 5.0 km/h 8.4 km/h 68% 0.0 mm CLR
00:40 11.1 °C 5.4 °C 1016.7 hPa SW 5.0 km/h 10.0 km/h 68% 0.0 mm CLR
00:45 11.0 °C 5.3 °C 1016.7 hPa SSW 5.0 km/h 8.4 km/h 68% 0.0 mm CLR
00:50 10.9 °C 5.2 °C 1016.7 hPa South 5.8 km/h 11.1 km/h 68% 0.0 mm CLR
00:55 10.8 °C 5.1 °C 1016.7 hPa South 5.8 km/h 5.6 km/h 68% 0.0 mm CLR
01:00 10.6 °C 4.9 °C 1016.7 hPa South 8.0 km/h 9.7 km/h 68% 0.0 mm CLR
01:05 10.4 °C 4.9 °C 1016.6 hPa SSW 6.4 km/h 9.3 km/h 69% 0.0 mm CLR
01:10 10.3 °C 4.7 °C 1016.6 hPa SSW 6.4 km/h 7.4 km/h 68% 0.0 mm CLR
01:15 10.3 °C 4.7 °C 1016.6 hPa SW 6.4 km/h 7.4 km/h 68% 0.0 mm CLR
01:20 10.3 °C 4.7 °C 1016.4 hPa SW 4.7 km/h 7.4 km/h 68% 0.0 mm CLR
01:25 10.3 °C 4.4 °C 1016.4 hPa SW 4.7 km/h 7.4 km/h 67% 0.0 mm CLR
01:30 10.3 °C 4.4 °C 1016.4 hPa South 5.0 km/h 7.6 km/h 67% 0.0 mm CLR
01:35 10.3 °C 4.4 °C 1016.3 hPa South 5.0 km/h 7.4 km/h 67% 0.0 mm CLR
01:40 10.3 °C 4.2 °C 1016.3 hPa SW 5.8 km/h 12.2 km/h 66% 0.0 mm CLR
01:45 10.3 °C 4.0 °C 1016.3 hPa WSW 5.8 km/h 7.6 km/h 65% 0.0 mm CLR
01:50 10.2 °C 3.7 °C 1016.1 hPa SW 6.9 km/h 9.3 km/h 64% 0.0 mm CLR
01:55 10.2 °C 3.7 °C 1016.1 hPa WSW 6.9 km/h 7.6 km/h 64% 0.0 mm CLR
02:00 10.2 °C 3.9 °C 1016.1 hPa WSW 4.8 km/h 9.7 km/h 65% 0.0 mm CLR
02:05 10.1 °C 4.1 °C 1016.0 hPa SSW 5.8 km/h 9.3 km/h 66% 0.0 mm CLR
02:10 10.1 °C 3.8 °C 1016.0 hPa South 5.8 km/h 9.3 km/h 65% 0.0 mm CLR
02:15 10.0 °C 3.7 °C 1016.0 hPa South 5.8 km/h 11.9 km/h 65% 0.0 mm CLR
02:20 9.9 °C 3.4 °C 1016.0 hPa South 8.4 km/h 9.3 km/h 64% 0.0 mm CLR
02:25 9.8 °C 3.3 °C 1016.0 hPa SSE 8.4 km/h 10.3 km/h 64% 0.0 mm CLR
02:30 9.8 °C 3.3 °C 1016.0 hPa SSE 6.9 km/h 9.5 km/h 64% 0.0 mm CLR
02:35 9.7 °C 2.8 °C 1016.0 hPa SSW 6.9 km/h 9.3 km/h 62% 0.0 mm CLR
02:40 9.7 °C 2.8 °C 1016.0 hPa South 7.6 km/h 9.3 km/h 62% 0.0 mm CLR
02:45 9.7 °C 2.6 °C 1016.0 hPa South 7.6 km/h 11.1 km/h 61% 0.0 mm CLR
02:50 9.8 °C 2.6 °C 1016.1 hPa South 6.9 km/h 9.3 km/h 61% 0.0 mm CLR
02:55 9.8 °C 2.4 °C 1016.1 hPa SSW 6.9 km/h 11.1 km/h 60% 0.0 mm CLR
03:00 9.8 °C 2.6 °C 1016.1 hPa South 8.0 km/h 11.3 km/h 61% 0.0 mm CLR
03:05 9.7 °C 3.0 °C 1016.0 hPa SSE 7.6 km/h 11.1 km/h 63% 0.0 mm CLR
03:10 9.6 °C 2.7 °C 1016.0 hPa SSW 6.9 km/h 12.2 km/h 62% 0.0 mm CLR
03:15 9.6 °C 2.4 °C 1016.0 hPa SSW 6.9 km/h 13.0 km/h 61% 0.0 mm CLR
03:20 9.6 °C 1.9 °C 1016.1 hPa WSW 8.4 km/h 9.5 km/h 59% 0.0 mm CLR
03:25 9.7 °C 1.8 °C 1016.1 hPa WSW 8.4 km/h 7.4 km/h 58% 0.0 mm CLR
03:30 9.8 °C 1.4 °C 1016.1 hPa WSW 5.0 km/h 9.3 km/h 56% 0.0 mm CLR
03:35 9.9 °C 1.3 °C 1016.0 hPa WSW 5.0 km/h 7.4 km/h 55% 0.0 mm CLR
03:40 10.0 °C 1.1 °C 1016.0 hPa WSW 5.8 km/h 7.4 km/h 54% 0.0 mm CLR
03:45 10.0 °C 1.1 °C 1016.0 hPa WSW 5.8 km/h 7.4 km/h 54% 0.0 mm CLR
03:50 10.1 °C 1.2 °C 1016.0 hPa WSW 5.0 km/h 5.6 km/h 54% 0.0 mm CLR
03:55 10.0 °C 0.8 °C 1016.0 hPa WSW 5.0 km/h 9.3 km/h 53% 0.0 mm CLR
04:00 10.0 °C 0.8 °C 1016.0 hPa WSW 3.2 km/h 9.7 km/h 53% 0.0 mm CLR
04:05 10.1 °C 0.9 °C 1015.8 hPa SW 4.7 km/h 9.3 km/h 53% 0.0 mm CLR
04:10 10.1 °C 0.9 °C 1015.8 hPa WSW 6.4 km/h 11.1 km/h 53% 0.0 mm CLR
04:15 10.0 °C 0.8 °C 1015.8 hPa WSW 6.4 km/h 9.3 km/h 53% 0.0 mm CLR
04:20 9.9 °C 0.8 °C 1015.7 hPa WSW 7.6 km/h 9.3 km/h 53% 0.0 mm CLR
04:25 9.9 °C 0.8 °C 1015.7 hPa SSW 7.6 km/h 13.0 km/h 53% 0.0 mm CLR
04:30 9.8 °C 0.7 °C 1015.7 hPa WSW 6.9 km/h 9.3 km/h 53% 0.0 mm CLR
04:35 9.8 °C 0.9 °C 1015.7 hPa WSW 6.9 km/h 9.3 km/h 54% 0.0 mm CLR
04:40 9.7 °C 0.8 °C 1015.7 hPa WSW 6.4 km/h 9.3 km/h 54% 0.0 mm CLR
04:45 9.6 °C 1.0 °C 1015.7 hPa SW 6.4 km/h 7.4 km/h 55% 0.0 mm CLR
04:50 9.6 °C 1.0 °C 1015.6 hPa SW 5.0 km/h 9.3 km/h 55% 0.0 mm CLR
04:55 9.4 °C 0.8 °C 1015.6 hPa SW 5.0 km/h 9.3 km/h 55% 0.0 mm CLR
05:00 9.4 °C 1.1 °C 1015.6 hPa SW 4.8 km/h 8.0 km/h 56% 0.0 mm CLR
05:05 9.3 °C 1.2 °C 1015.6 hPa SSE 5.8 km/h 8.4 km/h 57% 0.0 mm CLR
05:10 8.9 °C 1.1 °C 1015.6 hPa SSE 5.0 km/h 13.0 km/h 58% 0.0 mm CLR
05:15 8.7 °C 1.1 °C 1015.6 hPa South 5.0 km/h 13.0 km/h 59% 0.0 mm CLR
05:20 8.6 °C 1.1 °C 1015.5 hPa South 10.0 km/h 16.7 km/h 59% 0.0 mm CLR
05:25 8.6 °C 1.1 °C 1015.5 hPa South 10.0 km/h 13.0 km/h 59% 0.0 mm CLR
05:30 8.6 °C 0.8 °C 1015.5 hPa South 10.0 km/h 16.7 km/h 58% 0.0 mm CLR
05:35 8.9 °C 0.8 °C 1015.4 hPa SSE 10.0 km/h 14.8 km/h 57% 0.0 mm CLR
05:40 9.0 °C 0.7 °C 1015.4 hPa SSE 11.1 km/h 14.8 km/h 56% 0.0 mm CLR
05:45 9.1 °C 0.5 °C 1015.4 hPa WSW 11.1 km/h 11.1 km/h 55% 0.0 mm CLR
05:50 9.1 °C 0.5 °C 1015.5 hPa SW 9.5 km/h 11.1 km/h 55% 0.0 mm CLR
05:55 9.3 °C 0.7 °C 1015.5 hPa SSW 9.5 km/h 13.0 km/h 55% 0.0 mm CLR
06:00 9.4 °C 0.8 °C 1015.5 hPa SW 8.0 km/h 12.9 km/h 55% 0.0 mm CLR
06:05 9.3 °C 0.7 °C 1015.4 hPa SSW 6.9 km/h 11.1 km/h 55% 0.0 mm CLR
06:10 9.1 °C 0.8 °C 1015.4 hPa SW 8.4 km/h 11.1 km/h 56% 0.0 mm CLR
06:15 8.9 °C 0.6 °C 1015.4 hPa SW 8.4 km/h 11.1 km/h 56% 0.0 mm CLR
06:20 8.8 °C 0.7 °C 1015.4 hPa SW 8.4 km/h 11.1 km/h 57% 0.0 mm CLR
06:25 8.8 °C 0.7 °C 1015.4 hPa SW 8.4 km/h 13.0 km/h 57% 0.0 mm CLR
06:30 8.7 °C 0.7 °C 1015.4 hPa SSW 7.6 km/h 11.1 km/h 57% 0.0 mm CLR
06:35 8.6 °C 0.8 °C 1015.5 hPa SW 7.6 km/h 13.0 km/h 58% 0.0 mm CLR
06:40 8.4 °C 0.6 °C 1015.5 hPa SW 8.4 km/h 14.8 km/h 58% 0.0 mm CLR
06:45 8.4 °C 0.8 °C 1015.5 hPa SSW 8.4 km/h 13.0 km/h 59% 0.0 mm CLR
06:50 8.4 °C 0.8 °C 1015.5 hPa SSW 8.4 km/h 11.1 km/h 59% 0.0 mm CLR
06:55 8.4 °C 0.8 °C 1015.5 hPa SW 8.4 km/h 9.3 km/h 59% 0.0 mm CLR
07:00 8.4 °C 0.8 °C 1015.5 hPa SW 8.0 km/h 9.7 km/h 59% 0.0 mm CLR
07:05 8.5 °C 0.9 °C 1015.6 hPa SW 6.4 km/h 7.4 km/h 59% 0.0 mm CLR
07:10 8.5 °C 0.9 °C 1015.6 hPa SW 5.0 km/h 8.4 km/h 59% 0.0 mm CLR
07:15 8.4 °C 0.8 °C 1015.6 hPa WSW 5.0 km/h 9.3 km/h 59% 0.0 mm CLR
07:20 8.4 °C 0.6 °C 1015.7 hPa SSW 6.4 km/h 9.5 km/h 58% 0.0 mm CLR
07:25 8.4 °C 0.6 °C 1015.7 hPa SW 6.4 km/h 7.4 km/h 58% 0.0 mm CLR
07:30 8.4 °C 0.8 °C 1015.7 hPa SW 6.4 km/h 5.6 km/h 59% 0.0 mm CLR
07:35 8.4 °C 0.8 °C 1015.9 hPa South 6.4 km/h 13.0 km/h 59% 0.0 mm CLR
07:40 8.3 °C 0.7 °C 1015.9 hPa South 5.0 km/h 11.1 km/h 59% 0.0 mm CLR
07:45 8.2 °C 0.7 °C 1015.9 hPa South 5.0 km/h 9.3 km/h 59% 0.0 mm CLR
07:50 8.2 °C 0.7 °C 1016.0 hPa South 6.9 km/h 9.3 km/h 59% 0.0 mm CLR
07:55 8.1 °C 0.8 °C 1016.0 hPa SE 6.9 km/h 9.3 km/h 60% 0.0 mm CLR
08:00 8.0 °C 0.7 °C 1016.0 hPa South 4.8 km/h 9.7 km/h 60% 0.0 mm CLR
08:05 7.9 °C 0.6 °C 1016.0 hPa SSW 5.8 km/h 11.1 km/h 60% 0.0 mm CLR
08:10 7.9 °C 0.6 °C 1016.0 hPa South 6.9 km/h 13.0 km/h 60% 0.0 mm CLR
08:15 7.9 °C 0.6 °C 1016.0 hPa SW 6.9 km/h 9.3 km/h 60% 0.0 mm CLR
08:20 7.9 °C 0.6 °C 1016.2 hPa South 8.4 km/h 9.5 km/h 60% 0.0 mm CLR
08:25 7.9 °C 0.6 °C 1016.2 hPa SSW 8.4 km/h 9.3 km/h 60% 0.0 mm CLR
08:30 7.9 °C 0.6 °C 1016.2 hPa SSE 6.4 km/h 7.4 km/h 60% 0.0 mm CLR
08:35 7.9 °C 0.8 °C 1016.2 hPa SSE 6.4 km/h 7.4 km/h 61% 0.0 mm CLR
08:40 7.8 °C 0.7 °C 1016.2 hPa South 3.9 km/h 5.6 km/h 61% 0.0 mm CLR
08:45 7.7 °C 0.7 °C 1016.2 hPa South 3.9 km/h 7.4 km/h 61% 0.0 mm CLR
08:50 7.8 °C 0.7 °C 1016.3 hPa South 4.7 km/h 5.8 km/h 61% 0.0 mm CLR
08:55 7.9 °C 0.8 °C 1016.3 hPa SE 4.7 km/h 7.4 km/h 61% 0.0 mm CLR
09:00 7.9 °C 0.8 °C 1016.3 hPa South 4.8 km/h 9.7 km/h 61% 0.0 mm CLR
09:05 7.9 °C 0.8 °C 1016.4 hPa SW 5.0 km/h 9.3 km/h 61% 0.0 mm CLR
09:10 7.9 °C 0.8 °C 1016.4 hPa SW 6.9 km/h 13.0 km/h 61% 0.0 mm CLR
09:15 8.1 °C 0.8 °C 1016.4 hPa SW 6.9 km/h 16.7 km/h 60% 0.0 mm CLR
09:20 8.1 °C 0.8 °C 1016.4 hPa West 10.0 km/h 14.8 km/h 60% 0.0 mm CLR
09:25 8.3 °C 0.7 °C 1016.4 hPa SW 10.0 km/h 16.7 km/h 59% 0.0 mm CLR
09:30 8.4 °C 0.8 °C 1016.4 hPa SW 11.3 km/h 20.9 km/h 59% 0.0 mm CLR
09:34 8.5 °C 0.7 °C 1016.4 hPa WSW 11.1 km/h 18.5 km/h 58% 0.0 mm CLR
09:39 8.6 °C 0.8 °C 1016.4 hPa SSW 11.1 km/h 14.8 km/h 58% 0.0 mm CLR
09:45 8.7 °C 0.9 °C 1016.4 hPa WSW 11.9 km/h 18.5 km/h 58% 0.0 mm CLR
09:50 8.9 °C 0.8 °C 1016.4 hPa WSW 11.1 km/h 22.2 km/h 57% 0.0 mm CLR
09:55 8.9 °C 0.8 °C 1016.4 hPa WSW 11.1 km/h 18.5 km/h 57% 0.0 mm CLR
10:00 9.1 °C 0.8 °C 1016.4 hPa WSW 11.3 km/h 19.3 km/h 56% 0.0 mm CLR
10:05 9.4 °C 1.1 °C 1016.6 hPa WSW 11.9 km/h 16.4 km/h 56% 0.0 mm CLR
10:10 9.6 °C 1.0 °C 1016.6 hPa WSW 10.0 km/h 16.7 km/h 55% 0.0 mm CLR
10:15 9.7 °C 1.1 °C 1016.6 hPa SSW 10.0 km/h 11.1 km/h 55% 0.0 mm CLR
10:20 9.9 °C 1.0 °C 1016.7 hPa West 9.5 km/h 18.5 km/h 54% 0.0 mm CLR
10:25 10.2 °C 1.3 °C 1016.7 hPa South 9.5 km/h 8.7 km/h 54% 0.0 mm CLR
10:30 10.4 °C 1.2 °C 1016.7 hPa SSE 7.6 km/h 9.3 km/h 53% 0.0 mm CLR
10:35 10.5 °C 1.3 °C 1016.8 hPa SSE 7.6 km/h 8.7 km/h 53% 0.0 mm CLR
10:40 10.6 °C 1.2 °C 1016.8 hPa South 6.9 km/h 13.0 km/h 52% 0.0 mm CLR
10:45 10.6 °C 1.2 °C 1016.8 hPa SSW 6.9 km/h 13.0 km/h 52% 0.0 mm CLR
10:50 10.7 °C 1.2 °C 1016.9 hPa South 10.0 km/h 9.5 km/h 52% 0.0 mm CLR
10:55 10.8 °C 1.1 °C 1016.9 hPa SW 10.0 km/h 12.2 km/h 51% 0.0 mm CLR
11:00 10.8 °C 1.1 °C 1016.9 hPa SSW 9.7 km/h 14.5 km/h 51% 0.0 mm CLR
11:05 10.9 °C 1.2 °C 1017.0 hPa West 8.7 km/h 13.0 km/h 51% 0.0 mm CLR
11:10 11.1 °C 1.1 °C 1017.0 hPa WSW 6.9 km/h 9.3 km/h 50% 0.0 mm CLR
11:15 11.2 °C 1.2 °C 1017.0 hPa SW 6.9 km/h 8.7 km/h 50% 0.0 mm CLR
11:20 11.4 °C 1.3 °C 1017.0 hPa SW 6.9 km/h 9.5 km/h 50% 0.0 mm CLR
11:25 11.6 °C 0.9 °C 1017.0 hPa WSW 6.9 km/h 16.7 km/h 48% 0.0 mm CLR
11:30 11.7 °C 1.1 °C 1017.0 hPa West 9.5 km/h 14.8 km/h 48% 0.0 mm CLR
11:35 11.6 °C 0.9 °C 1016.9 hPa SW 9.5 km/h 14.8 km/h 48% 0.0 mm CLR
11:40 11.7 °C 1.3 °C 1016.9 hPa SW 10.0 km/h 9.3 km/h 49% 0.0 mm CLR
11:45 11.9 °C 1.2 °C 1016.9 hPa SSW 10.0 km/h 13.0 km/h 48% 0.0 mm CLR
11:50 11.8 °C 1.1 °C 1017.0 hPa SW 7.6 km/h 9.3 km/h 48% 0.0 mm CLR
11:55 12.1 °C 1.1 °C 1017.0 hPa South 7.6 km/h 13.0 km/h 47% 0.0 mm CLR
12:00 12.2 °C 1.2 °C 1017.0 hPa SSW 9.7 km/h 19.3 km/h 47% 0.0 mm CLR
12:05 12.2 °C 1.2 °C 1016.9 hPa South 10.0 km/h 16.7 km/h 47% 0.0 mm CLR
12:10 12.2 °C 1.2 °C 1016.9 hPa SSW 11.1 km/h 11.1 km/h 47% 0.0 mm CLR
12:15 12.3 °C 1.0 °C 1016.9 hPa SW 11.1 km/h 13.0 km/h 46% 0.0 mm CLR
12:20 12.3 °C 1.0 °C 1016.7 hPa SW 8.4 km/h 7.4 km/h 46% 0.0 mm CLR
12:25 12.6 °C 1.3 °C 1016.7 hPa SW 8.4 km/h 13.0 km/h 46% 0.0 mm CLR
12:30 12.7 °C 1.1 °C 1016.7 hPa WSW 6.9 km/h 11.1 km/h 45% 0.0 mm CLR
12:35 12.8 °C 1.2 °C 1016.3 hPa SW 6.9 km/h 13.0 km/h 45% 0.0 mm CLR
12:40 12.9 °C 1.2 °C 1016.3 hPa SW 7.6 km/h 7.4 km/h 45% 0.0 mm CLR
12:45 13.1 °C 1.1 °C 1016.3 hPa South 7.6 km/h 14.8 km/h 44% 0.0 mm CLR
12:50 13.1 °C 1.1 °C 1016.1 hPa SW 7.6 km/h 7.4 km/h 44% 0.0 mm CLR
12:55 13.2 °C 1.2 °C 1016.1 hPa South 7.6 km/h 11.1 km/h 44% 0.0 mm CLR
13:00 13.3 °C 1.3 °C 1016.1 hPa South 8.0 km/h 16.1 km/h 44% 0.0 mm CLR
13:05 13.4 °C 1.1 °C 1015.8 hPa SW 7.6 km/h 13.0 km/h 43% 0.0 mm CLR
13:10 13.6 °C 1.2 °C 1015.8 hPa SSW 6.9 km/h 11.1 km/h 43% 0.0 mm CLR
13:15 13.7 °C 1.3 °C 1015.8 hPa SSW 6.9 km/h 7.4 km/h 43% 0.0 mm CLR
13:20 13.8 °C 1.1 °C 1015.5 hPa SE 6.4 km/h 11.1 km/h 42% 0.0 mm CLR
13:25 13.8 °C 1.1 °C 1015.5 hPa East 6.4 km/h 5.6 km/h 42% 0.0 mm CLR
13:30 13.8 °C 1.1 °C 1015.5 hPa ENE 5.0 km/h 10.0 km/h 42% 0.0 mm CLR
13:35 13.8 °C 1.4 °C 1015.0 hPa ENE 5.0 km/h   43% 0.0 mm CLR
13:40 14.1 °C 1.4 °C 1015.0 hPa NE 3.9 km/h 5.6 km/h 42% 0.0 mm CLR
13:45 14.2 °C 1.1 °C 1015.0 hPa West 3.9 km/h 7.4 km/h 41% 0.0 mm FEW
13:50 14.3 °C 1.2 °C 1014.7 hPa West 3.9 km/h 5.6 km/h 41% 0.0 mm FEW
13:55 14.3 °C 1.2 °C 1014.7 hPa West 3.9 km/h 3.7 km/h 41% 0.0 mm FEW
14:00 14.4 °C 1.3 °C 1014.7 hPa West 3.2 km/h 8.0 km/h 41% 0.0 mm FEW
14:05 14.5 °C 1.1 °C 1014.3 hPa West 3.2 km/h 7.4 km/h 40% 0.0 mm FEW
14:10 14.5 °C 1.1 °C 1014.3 hPa West 4.7 km/h 7.4 km/h 40% 0.0 mm FEW
14:15 14.6 °C 1.1 °C 1014.3 hPa WSW 4.7 km/h 10.3 km/h 40% 0.0 mm FEW
14:20 14.6 °C 1.1 °C 1014.1 hPa North 5.0 km/h 5.6 km/h 40% 0.0 mm FEW
14:25 14.7 °C 1.2 °C 1014.1 hPa WSW 5.0 km/h 6.9 km/h 40% 0.0 mm FEW
14:30 14.8 °C 1.3 °C 1014.1 hPa SSE 3.9 km/h 7.4 km/h 40% 0.0 mm FEW
14:35 14.9 °C 1.1 °C 1013.8 hPa South 3.9 km/h 9.3 km/h 39% 0.0 mm FEW
14:40 14.9 °C 1.1 °C 1013.8 hPa SE 5.8 km/h 7.4 km/h 39% 0.0 mm FEW
14:45 15.0 °C 1.2 °C 1013.8 hPa WSW 5.8 km/h 7.4 km/h 39% 0.0 mm FEW
14:50 15.1 °C 0.9 °C 1013.6 hPa WSW 3.9 km/h 9.3 km/h 38% 0.0 mm FEW
14:55 15.2 °C 1.3 °C 1013.6 hPa West 3.9 km/h 7.4 km/h 39% 0.0 mm FEW
15:00 15.3 °C 1.1 °C 1013.6 hPa WSW 4.8 km/h 11.3 km/h 38% 0.0 mm FEW
15:05 15.3 °C 1.1 °C 1013.5 hPa WSW 5.0 km/h 7.4 km/h 38% 0.0 mm FEW
15:10 15.3 °C 1.1 °C 1013.5 hPa WSW 5.8 km/h 5.6 km/h 38% 0.0 mm FEW
15:15 15.4 °C 0.8 °C 1013.5 hPa North 5.8 km/h 7.4 km/h 37% 0.0 mm FEW
15:20 15.5 °C 0.8 °C 1013.3 hPa ESE 3.9 km/h 7.4 km/h 37% 0.0 mm FEW
15:25 15.6 °C 0.9 °C 1013.3 hPa ESE 3.9 km/h 7.4 km/h 37% 0.0 mm FEW
15:30 15.6 °C 0.9 °C 1013.3 hPa SSE 4.7 km/h 9.3 km/h 37% 0.0 mm FEW
15:35 15.6 °C 0.9 °C 1013.1 hPa SSW 4.7 km/h 7.6 km/h 37% 0.0 mm FEW
15:40 15.7 °C 1.1 °C 1013.1 hPa SSW 5.0 km/h 9.3 km/h 37% 0.0 mm FEW
15:45 15.9 °C 1.2 °C 1013.1 hPa SSW 5.0 km/h 5.6 km/h 37% 0.0 mm FEW
15:50 15.9 °C 0.8 °C 1012.9 hPa SSW 3.2 km/h 5.6 km/h 36% 0.0 mm FEW
15:55 16.0 °C 0.9 °C 1012.9 hPa ESE 3.2 km/h 4.7 km/h 36% 0.0 mm FEW
16:00 15.9 °C 0.9 °C 1012.9 hPa ENE 3.2 km/h 8.0 km/h 36% 0.0 mm FEW
16:05 15.8 °C 0.7 °C 1012.8 hPa NNW 2.9 km/h 9.3 km/h 36% 0.0 mm FEW
16:10 15.8 °C 1.1 °C 1012.8 hPa NW 5.0 km/h 4.7 km/h 37% 0.0 mm FEW
16:15 16.0 °C 1.3 °C 1012.8 hPa NW 5.0 km/h 7.4 km/h 37% 0.0 mm FEW
16:20 16.2 °C 1.1 °C 1012.7 hPa NNE 2.9 km/h 7.4 km/h 36% 0.0 mm FEW
16:25 16.3 °C 1.2 °C 1012.7 hPa NE 2.9 km/h   36% 0.0 mm FEW
16:30 16.4 °C 0.9 °C 1012.7 hPa NE 2.9 km/h 5.8 km/h 35% 0.0 mm FEW
16:35 16.4 °C 0.9 °C 1012.5 hPa NNE 2.9 km/h 5.6 km/h 35% 0.0 mm FEW
16:40 16.4 °C 0.9 °C 1012.5 hPa NNE 3.2 km/h 3.7 km/h 35% 0.0 mm FEW
16:45 16.3 °C 0.8 °C 1012.5 hPa NNE 3.2 km/h 2.9 km/h 35% 0.0 mm FEW
16:50 16.3 °C 0.8 °C 1012.5 hPa NNE 2.3 km/h 3.7 km/h 35% 0.0 mm FEW
16:55 16.4 °C 1.3 °C 1012.5 hPa NNE 2.3 km/h   36% 0.0 mm FEW
17:00 16.3 °C 0.8 °C 1012.5 hPa NE 3.2 km/h 8.0 km/h 35% 0.0 mm FEW
17:05 16.3 °C 0.8 °C 1012.4 hPa East 2.9 km/h 7.4 km/h 35% 0.0 mm FEW
17:10 16.2 °C 2.2 °C 1012.4 hPa SE 3.9 km/h 14.8 km/h 39% 0.0 mm FEW
17:15 15.8 °C 3.6 °C 1012.4 hPa South 3.9 km/h 14.8 km/h 44% 0.0 mm FEW
17:20 15.5 °C 3.6 °C 1012.4 hPa SSE 10.0 km/h 14.0 km/h 45% 0.0 mm FEW
17:25 15.2 °C 3.9 °C 1012.4 hPa SE 10.0 km/h 13.0 km/h 47% 0.0 mm FEW
17:30 15.0 °C 4.1 °C 1012.4 hPa South 9.5 km/h 14.8 km/h 48% 0.0 mm FEW
17:35 14.8 °C 4.2 °C 1012.4 hPa SSW 9.5 km/h 18.5 km/h 49% 0.0 mm FEW
17:40 14.6 °C 4.3 °C 1012.4 hPa SSW 11.9 km/h 19.0 km/h 50% 0.0 mm FEW
17:45 14.4 °C 4.4 °C 1012.4 hPa SSE 11.9 km/h 16.7 km/h 51% 0.0 mm FEW
17:50 14.3 °C 4.6 °C 1012.4 hPa South 12.2 km/h 14.8 km/h 52% 0.0 mm FEW
17:55 14.2 °C 4.5 °C 1012.4 hPa South 12.2 km/h 16.7 km/h 52% 0.0 mm FEW
18:00 14.1 °C 4.7 °C 1012.4 hPa South 9.7 km/h 14.5 km/h 53% 0.0 mm FEW
18:05 13.9 °C 4.4 °C 1012.5 hPa SSE 9.5 km/h 16.7 km/h 53% 0.0 mm FEW
18:10 13.8 °C 4.7 °C 1012.5 hPa SSE 11.1 km/h 18.5 km/h 54% 0.0 mm FEW
18:15 13.7 °C 4.8 °C 1012.5 hPa SSE 11.1 km/h 14.8 km/h 55% 0.0 mm FEW
18:20 13.7 °C 4.8 °C 1012.4 hPa SSE 11.9 km/h 18.5 km/h 55% 0.0 mm FEW
18:25 13.6 °C 4.7 °C 1012.4 hPa SE 11.9 km/h 16.7 km/h 55% 0.0 mm FEW
18:30 13.5 °C 4.9 °C 1012.4 hPa SSE 11.1 km/h 16.7 km/h 56% 0.0 mm FEW
18:35 13.4 °C 4.8 °C 1012.3 hPa SSE 11.1 km/h 13.7 km/h 56% 0.0 mm FEW
18:40 13.4 °C 5.1 °C 1012.3 hPa South 10.0 km/h 14.8 km/h 57% 0.0 mm FEW
18:45 13.3 °C 5.2 °C 1012.3 hPa SSW 10.0 km/h 14.8 km/h 58% 0.0 mm FEW
18:50 13.3 °C 5.2 °C 1012.2 hPa South 10.3 km/h 18.5 km/h 58% 0.0 mm FEW
18:55 13.3 °C 5.4 °C 1012.2 hPa South 10.3 km/h 13.0 km/h 59% 0.0 mm FEW
19:00 13.3 °C 5.7 °C 1012.2 hPa South 11.3 km/h 19.3 km/h 60% 0.0 mm FEW
19:05 13.2 °C 5.8 °C 1012.2 hPa SSE 10.3 km/h 13.0 km/h 61% 0.0 mm FEW
19:10 13.2 °C 6.3 °C 1012.2 hPa South 11.1 km/h 17.2 km/h 63% 0.0 mm FEW
19:15 13.2 °C 6.6 °C 1012.2 hPa South 11.1 km/h 14.8 km/h 64% 0.0 mm CLR
19:20 13.2 °C 6.8 °C 1012.2 hPa South 11.9 km/h 9.3 km/h 65% 0.0 mm CLR
19:25 13.2 °C 6.8 °C 1012.2 hPa SE 11.9 km/h 11.1 km/h 65% 0.0 mm CLR
19:30 13.2 °C 7.0 °C 1012.2 hPa SSE 7.6 km/h 11.1 km/h 66% 0.0 mm CLR
19:35 13.2 °C 7.0 °C 1012.2 hPa South 7.6 km/h 9.3 km/h 66% 0.0 mm CLR
19:40 13.2 °C 7.0 °C 1012.2 hPa SSE 6.9 km/h 9.3 km/h 66% 0.0 mm CLR
19:45 13.2 °C 7.0 °C 1012.2 hPa SSW 6.9 km/h 11.1 km/h 66% 0.0 mm CLR
19:50 13.2 °C 7.0 °C 1012.1 hPa South 7.6 km/h 10.0 km/h 66% 0.0 mm CLR
19:55 13.2 °C 7.0 °C 1012.1 hPa SSW 7.6 km/h 7.6 km/h 66% 0.0 mm CLR
20:00 13.2 °C 7.0 °C 1012.1 hPa South 8.0 km/h 9.7 km/h 66% 0.0 mm CLR
20:05 13.2 °C 7.2 °C 1012.2 hPa SSE 6.4 km/h 9.3 km/h 67% 0.0 mm CLR
20:10 13.1 °C 7.1 °C 1012.2 hPa SSE 5.8 km/h 7.4 km/h 67% 0.0 mm CLR
20:15 13.1 °C 7.1 °C 1012.2 hPa South 5.8 km/h 7.4 km/h 67% 0.0 mm CLR
20:20 13.1 °C 7.1 °C 1012.1 hPa South 3.9 km/h   67% 0.0 mm CLR
20:25 13.0 °C 7.0 °C 1012.1 hPa South 3.9 km/h   67% 0.0 mm CLR
20:30 12.9 °C 6.9 °C 1012.1 hPa Calm     67% 0.0 mm CLR
20:35 12.8 °C 6.8 °C 1012.0 hPa Calm   3.9 km/h 67% 0.0 mm CLR
20:40 12.6 °C 6.6 °C 1012.0 hPa South 2.3 km/h 5.6 km/h 67% 0.0 mm CLR
20:45 12.3 °C 6.6 °C 1012.0 hPa South 2.3 km/h 3.7 km/h 68% 0.0 mm CLR
20:50 12.1 °C 6.6 °C 1011.8 hPa South 3.2 km/h 7.4 km/h 69% 0.0 mm CLR
20:55 11.9 °C 6.6 °C 1011.8 hPa South 3.2 km/h 5.6 km/h 70% 0.0 mm CLR
21:00 11.8 °C 6.5 °C 1011.8 hPa South 3.2 km/h 8.0 km/h 70% 0.0 mm CLR
21:05 11.7 °C 6.6 °C 1011.7 hPa South 3.2 km/h 5.6 km/h 71% 0.0 mm CLR
21:10 11.7 °C 6.6 °C 1011.7 hPa South 3.2 km/h 5.6 km/h 71% 0.0 mm CLR
21:15 11.6 °C 6.5 °C 1011.7 hPa South 3.2 km/h 4.7 km/h 71% 0.0 mm CLR
21:20 11.6 °C 6.5 °C 1011.7 hPa NW 3.2 km/h 7.4 km/h 71% 0.0 mm CLR
21:25 11.5 °C 6.4 °C 1011.7 hPa NW 3.2 km/h 7.4 km/h 71% 0.0 mm CLR
21:30 11.4 °C 6.6 °C 1011.7 hPa NNW 4.7 km/h 1.9 km/h 72% 0.0 mm CLR
21:35 11.4 °C 6.6 °C 1011.6 hPa North 4.7 km/h 3.7 km/h 72% 0.0 mm CLR
21:40 11.4 °C 6.6 °C 1011.6 hPa North 2.3 km/h 5.6 km/h 72% 0.0 mm CLR
21:45 11.4 °C 6.6 °C 1011.6 hPa North 2.3 km/h 5.6 km/h 72% 0.0 mm CLR
21:50 11.4 °C 6.3 °C 1011.5 hPa North 3.2 km/h 2.3 km/h 71% 0.0 mm CLR
21:55 11.4 °C 6.3 °C 1011.5 hPa WNW 3.2 km/h 5.6 km/h 71% 0.0 mm CLR
22:00 11.3 °C 6.2 °C 1011.5 hPa NW 3.2 km/h 6.4 km/h 71% 0.0 mm CLR
22:05 11.3 °C 6.2 °C 1011.2 hPa NW 3.2 km/h 7.4 km/h 71% 0.0 mm CLR
22:10 11.2 °C 6.1 °C 1011.2 hPa NNW 3.9 km/h 7.4 km/h 71% 0.0 mm CLR
22:15 11.1 °C 6.1 °C 1011.2 hPa NNW 3.9 km/h 3.7 km/h 71% 0.0 mm CLR
22:20 11.1 °C 6.1 °C 1011.2 hPa NNW 3.9 km/h 5.6 km/h 71% 0.0 mm CLR
22:25 11.1 °C 6.2 °C 1011.2 hPa NNW 3.9 km/h 5.6 km/h 72% 0.0 mm CLR
22:30 11.2 °C 6.3 °C 1011.2 hPa North 3.9 km/h 7.4 km/h 72% 0.0 mm CLR
22:35 11.2 °C 6.3 °C 1011.0 hPa North 3.9 km/h 5.0 km/h 72% 0.0 mm CLR
22:40 11.2 °C 6.3 °C 1011.0 hPa North 3.2 km/h 3.7 km/h 72% 0.0 mm CLR
22:45 11.2 °C 6.3 °C 1011.0 hPa North 3.2 km/h 3.7 km/h 72% 0.0 mm CLR
22:50 11.2 °C 6.3 °C 1011.0 hPa North 2.9 km/h 5.6 km/h 72% 0.0 mm CLR
22:55 11.2 °C 6.3 °C 1011.0 hPa NW 2.9 km/h 7.4 km/h 72% 0.0 mm CLR
23:00 11.2 °C 6.3 °C 1011.0 hPa NNW 3.2 km/h 8.0 km/h 72% 0.0 mm CLR
23:05 11.1 °C 6.2 °C 1010.9 hPa NW 3.2 km/h 7.4 km/h 72% 0.0 mm CLR
23:10 11.1 °C 6.4 °C 1010.9 hPa NW 3.9 km/h 7.4 km/h 73% 0.0 mm CLR
23:15 11.1 °C 6.2 °C 1010.9 hPa NW 3.9 km/h 7.4 km/h 72% 0.0 mm CLR
23:20 11.1 °C 6.2 °C 1010.7 hPa NNW 4.7 km/h 7.4 km/h 72% 0.0 mm CLR
23:25 11.0 °C 6.3 °C 1010.7 hPa NNW 4.7 km/h 3.7 km/h 73% 0.0 mm CLR
23:30 11.0 °C 6.3 °C 1010.7 hPa NNW 2.9 km/h   73% 0.0 mm CLR
23:35 10.9 °C 6.4 °C 1010.7 hPa NNW 2.9 km/h 1.9 km/h 74% 0.0 mm CLR
23:40 10.9 °C 6.4 °C 1010.7 hPa Calm     74% 0.0 mm CLR
23:45 10.9 °C 6.2 °C 1010.7 hPa Calm   4.7 km/h 73% 0.0 mm CLR
23:50 10.9 °C 6.4 °C 1010.7 hPa ESE 2.3 km/h 6.4 km/h 74% 0.0 mm CLR
23:55 10.8 °C 6.3 °C 1010.7 hPa ESE 2.3 km/h 3.7 km/h 74% 0.0 mm CLR
Murcia-Puente Tocinos, España
Compliments of Weather Underground - 2.75 mb

La estación de MeteoMurcia.com, publica sus datos en los siguientes proyectos:

Weather Underground PWS IMURCIAP2 Meteoclimatic www.awekas.at

W3Counter
Web Analytics